Retour au catalogue

THORAD AGENA D DEB

ActifLEO
NORAD 5736·DEBRIS·🇺🇸 United States

Lancé Apr 8, 1970 depuis Vandenberg Space Force Base

Loading…

Prochains Passages (prochaines 24 heures)

TLE

FraisSource: Space-Track

Époque: Sep 13, 2026, 23:14 UTC

1  5736U 70025MH  26256.96811470  .00000333  00000-0  90029-3 0  9994
2  5736 101.4366 256.1415 0226844  46.4540 343.5630 13.15032158704742

Suivez THORAD AGENA D DEB en temps réel avec AllMySat

Download on the App Store